COSMOS 2413 (712) 1 28509U 04053B 10072.10126663 .00000033 00000-0 10000-3 0 4547 2 28509 63.6888 271.8867 0005850 132.5140 61.2722 2.13100172 40548 COSMOS 2419 (714) 1 28915U 05050A 10071.81918844 -.00000001 00000-0 10000-3 0 1759 2 28915 64.8628 154.9102 0008051 335.6401 30.0487 2.13101924 32795 COSMOS 2418 (713) 1 28916U 05050B 10072.33821243 .00000007 00000-0 10000-3 0 1524 2 28916 64.8803 154.9314 0018714 337.8717 22.0937 2.13104755 32805 COSMOS 2425 (716) 1 29670U 06062A 10072.51092741 -.00000042 00000-0 10000-3 0 8975 2 29670 65.5410 33.8441 0024767 344.7079 180.2061 2.13103115 25002 COSMOS 2426 (717) 1 29671U 06062B 10072.20937116 -.00000042 00000-0 10000-3 0 9078 2 29671 65.5571 33.8883 0016595 176.7262 343.3993 2.13103536 25001 COSMOS 2424 (715) 1 29672U 06062C 10072.48451310 -.00000042 00000-0 10000-3 0 9212 2 29672 65.5426 33.8495 0014237 176.7606 14.7100 2.13103543 25000 COSMOS 2433 (720) 1 32275U 07052A 10072.49582253 .00000010 00000-0 00000+0 0 6493 2 32275 64.8752 154.6325 0002621 263.6950 83.3396 2.13102546 18512 COSMOS 2432 (719) 1 32276U 07052B 10072.18688618 .00000005 00000-0 10000-3 0 6299 2 32276 64.8890 154.6701 0014496 339.5214 84.7243 2.13102089 18511 COSMOS 2431 (718) 1 32277U 07052C 10072.51748150 .00000010 00000-0 00000+0 0 6375 2 32277 64.8916 154.6550 0018573 191.8433 261.5121 2.13102265 18601 COSMOS 2434 (721) 1 32393U 07065A 10072.42000939 -.00000042 00000-0 00000+0 0 4862 2 32393 65.1619 34.2478 0001568 131.2273 53.7303 2.13103071 17228 COSMOS 2435 (722) 1 32394U 07065B 10072.54986873 -.00000042 00000-0 00000+0 0 3887 2 32394 65.1631 34.2471 0001936 353.6756 111.5019 2.13103246 17165 COSMOS 2436 (723) 1 32395U 07065C 10072.52967811 -.00000042 00000-0 10000-3 0 4018 2 32395 65.1753 34.2513 0019453 347.9501 12.0929 2.13103367 17164 COSMOS 2442 (724) 1 33378U 08046A 10072.52630478 .00000011 00000-0 10000-3 0 4246 2 33378 64.7897 154.2466 0027589 335.4415 79.5125 2.13102168 11387 COSMOS 2443 (725) 1 33379U 08046B 10072.20546726 .00000006 00000-0 10000-3 0 4114 2 33379 64.7968 154.2928 0020836 183.6197 210.7123 2.13102391 11383 COSMOS 2444 (726) 1 33380U 08046C 10072.26012228 .00000007 00000-0 10000-3 0 4118 2 33380 64.8055 154.3027 0029366 327.7441 63.6229 2.13102744 11377 COSMOS 2447 (727) 1 33466U 08067A 10071.86129103 .00000035 00000-0 00000+0 0 3577 2 33466 64.5410 274.9872 0001578 283.0549 266.0206 2.13101716 9424 COSMOS 2449 (729) 1 33467U 08067B 10072.15556341 .00000034 00000-0 00000+0 0 3602 2 33467 64.5299 274.9606 0002201 316.6236 233.6446 2.13101894 9451 COSMOS 2448 (728) 1 33468U 08067C 10072.78607477 .00000032 00000-0 00000+0 0 3573 2 33468 64.5337 274.9395 0004159 334.9165 248.3207 2.13101534 9457 COSMOS 2456 (730) 1 36111U 09070A 10072.46933302 .00000034 00000-0 00000+0 0 1042 2 36111 64.7669 274.8545 0004556 346.9981 39.5054 2.13101790 1895 COSMOS 2457 (733) 1 36112U 09070B 10071.71329921 .00000036 00000-0 00000+0 0 946 2 36112 64.7500 274.8531 0014178 141.6905 249.9215 2.13101815 1885 COSMOS 2458 (734) 1 36113U 09070C 10072.71043447 .00000033 00000-0 10000-3 0 890 2 36113 64.7535 274.8141 0003345 60.4866 330.9932 2.13101911 1906